Regional Weather Roundup
Issued by NWS Northern Indiana

Home | Current Version | Previous Version | Text Only | Print | Product List | Glossary On
Versions: 1 2 3 4 5 6 7 8 9 10 11 12 13 14 15 16 17 18 19 20 21 22 23 24 25 26 27 28 29 30 31 32 33 34 35 36 37 38 39 40 41 42 43 44 45 46 47 48 49 50
449
ASUS43 KIWX 190810
RWRIWX

KIWX WEATHER ROUNDUP
NATIONAL WEATHER SERVICE NORTHERN INDIANA
400 AM EDT THU OCT 19 2017

NOTE: "FAIR" INDICATES FEW OR NO CLOUDS BELOW 12,000 FEET WITH NO
SIGNIFICANT WEATHER AND/OR OBSTRUCTIONS TO VISIBILITY.

* THESE STATIONS ARE NOT UNDER NWS QUALITY CONTROL. THEY ALSO MAY NOT
  REPORT WEATHER SUCH AS PRECIPITATION OR FOG.

INZ001>027-190900-
NORTHERN INDIANA

CITY           SKY/WX    TMP DP  RH WIND       PRES   REMARKS
GARY*          CLEAR     55  46  69 S3        30.07R
VALPARAISO     CLEAR     52  46  80 CALM      30.08S
MICHIGAN CITY* CLEAR     52  45  76 S9        30.07S
LAPORTE*       CLEAR     50  44  81 S5        30.08S
KNOX*          CLEAR     50  45  81 S5        30.08F
SOUTH BEND     CLEAR     54  46  74 SW13      30.08S
GOSHEN         CLEAR     53  43  68 SW12      30.08F
MONTICELLO*    CLEAR     51  45  79 S7        30.11S
LOGANSPORT*    CLEAR     50  45  81 S8        30.12F
WARSAW*        CLEAR     55  45  67 SW6       30.10F
AUBURN*        CLEAR     52  43  71 SW6       30.11F
FORT WAYNE     PTCLDY    48  43  82 SW8       30.13S
HUNTINGTON*    CLEAR     51  45  78 S5        30.13S
PERU/GRISSOM   CLEAR     52  46  82 SW10      30.12S
MARION*        CLEAR     48  45  87 S6        30.15F HAZE

$$
INZ028>050-190900-
CENTRAL INDIANA

CITY           SKY/WX    TMP DP  RH WIND       PRES   REMARKS
LAFAYETTE      CLEAR     51  46  83 SW3       30.12F
KOKOMO*        CLEAR     51  45  79 S10G18    30.14F
MUNCIE*        CLEAR     55  44  66 SW8       30.16S
INDIANAPOLIS   PTCLDY    51  45  79 S7        30.18R

$$
MIZ043>046-050>051-056>058-064>065-071>073-077>080-190900-
SOUTHWEST LOWER MICHIGAN

CITY           SKY/WX    TMP DP  RH WIND       PRES   REMARKS
BATTLE CREEK   CLEAR     54  45  71 SW12      30.05F
BENTON HARBOR  CLEAR     57  45  64 S8        30.04S
COLDWATER*     CLEAR     52  43  71 SW7       30.07F
HILLSDALE*     CLEAR     52  43  71 SW7       30.07F
HOLLAND        PTCLDY    60  50  69 SW17G25   30.01S
GRAND RAPIDS   PTCLDY    56  46  69 SW12      30.00F
KALAMAZOO      CLEAR     52  44  74 S10       30.05F
STURGIS*       CLEAR     53  45  75 SW13      30.07F
THREE RIVERS*  FAIR      53  45  75 SW7       30.07S

$$
OHZ001>008-015>018-024>025-190900-
NORTHWEST OHIO

CITY           SKY/WX    TMP DP  RH WIND       PRES   REMARKS
WAUSEON*       FAIR      48  45  87 SW8       30.10F
DEFIANCE       CLEAR     51  43  74 SW8       30.12S
FINDLAY        CLEAR     52  43  71 SW9       30.14R
TOLEDO EXPRESS CLEAR     53  45  74 SW7       30.10F
TOLEDO METCALF CLEAR     52  43  71 S9        30.12S
LIMA           CLEAR     51  44  77 SW8       30.15S

$$
AND FOR LAKE MICHIGAN COASTAL AND OPEN LAKE BUOY OBSERVATIONS

STATION/POSITION TEMP    WIND        PRES    VSBY  WAVE
                 AIR SEA DIR/SP/G                  HT/PER
                 (F)     (DEG/KT/KT) (MB)    (MI)  (FT/S)
CALUMET HARBOR    58     210/  7/ 10 1016.8R
MICHIGAN CITY     57     190/ 15/ 17   N/A
BURNS HARBOR      57     200/ 12/ 16 1018.3R
SAINT JOSEPH      59     200/ 13/ 18 1018.3S
SOUTH LAKE BUOY   62 61  260/ 17/ 19 1015.7R         4/ 6
4 MI NW BRIDGMAN  59 58  220/ 16/ 19 1017.8          3/ 4
MICHIGAN CITY     58 58  210/ 14/ 17   N/A           2/ 4

$$
&&




USA.gov is the U.S. government's official web portal to all federal, state and local government web resources and services.